Вернуться в каталог

CZ-3C R/B

unknownUNKNOWN
NORAD 37175·ROCKET BODY·🇨🇳 China

Запущен Oct 1, 2010 с Xichang Satellite Launch Center

Loading…

Ближайшие Пролёты (ближайшие 24 часа)

TLE

УстаревшееSource: Space-Track

Эпоха: Oct 1, 2010, 10:34 UTC

1 37175U 10050B   10274.44032264 -.00000212 +12725-5 +00000-0 0  9996
2 37175 032.3647 328.2319 1929833 063.2084 179.2559 12.98827208000012

Отслеживайте CZ-3C R/B в реальном времени с AllMySat

Download on the App Store